Regional Weather Roundup
Issued by NWS Albany, NY

Home | Current Version | Previous Version | Graphics & Text | Print | Product List | Glossary Off
Versions: 1 2 3 4 5 6 7 8 9 10 11 12 13 14 15 16 17 18 19 20 21 22 23 24 25 26 27 28 29 30 31 32 33 34 35 36 37 38 39 40 41 42 43 44 45 46 47 48 49 50

000
ASUS41 KALY 240910
RWRALY

NEW YORK STATE HOURLY WEATHER ROUNDUP
NATIONAL WEATHER SERVICE ALBANY NY
500 AM EDT SAT SEP 24 2016

NOTE: "FAIR" INDICATES FEW OR NO CLOUDS BELOW 12,000 FEET WITH NO
SIGNIFICANT WEATHER AND/OR NO OBSTRUCTIONS TO VISIBILITY.

NYZ032-033-038>043-046>054-057>066-NYZ062>081-082-084-241000-
EAST


CITY           SKY/WX    TMP DP  RH WIND       PRES   REMARKS
ALBANY         CLEAR     48  45  89 CALM      30.13R
GLENS FALLS    FOG       41  39  93 CALM      30.14R VSB 1/2
POUGHKEEPSIE   CLOUDY    56  51  84 N6        30.08S
NEWBURGH       MOCLDY    57  54  88 NE9       30.10R
MONTGOMERY     CLOUDY    58  50  75 NE9       30.09R
WHITE PLAINS   MOCLDY    56  52  86 NE7       30.06R
ISLIP          CLOUDY    61  58  90 NE10G20   30.04S
NEW YORK CITY  CLOUDY    62  56  80 NE12      30.05R
CENTRAL PARK   LGT RAIN  60  54  80 VRB6G17   30.08R
$$

NYZ005>009-017-018-044>046-055-056-241000-
CENTRAL


CITY           SKY/WX    TMP DP  RH WIND       PRES   REMARKS
FULTON         CLEAR     48  45  89 NE8       30.17R
SYRACUSE       PTCLDY    46  45  96 CALM      30.17R
ROME           CLEAR     44  43  96 CALM      30.18R
ELMIRA         CLOUDY    51  44  77 N5        30.14R
BINGHAMTON     CLOUDY    49  48  97 N8        30.12S
MONTICELLO     CLOUDY    54  48  82 N5        30.10S
$$

NYZ026>034-041>043-087-241000-
NORTH


CITY           SKY/WX    TMP DP  RH WIND       PRES   REMARKS
WATERTOWN      PTCLDY    40  39  97 E6        30.19R
FORT DRUM      NOT AVBL
OGDENSBURG     MOCLDY    45  44  97 N5        30.20R
MASSENA        PTCLDY    44  43  96 CALM      30.20S FOG
SARANAC LAKE   FOG       39  37  92 NE3       30.16R VSB 1/4
PLATTSBURGH    CLOUDY    47  42  83 W3        30.16R
$$

NYZ001>004-010>016-019>021-085-241000-
WEST


CITY           SKY/WX    TMP DP  RH WIND       PRES   REMARKS
NIAGARA FALLS  CLOUDY    53  47  79 NE6       30.19R
BUFFALO        CLOUDY    52  48  86 N7        30.19R
DUNKIRK        PTCLDY    53  51  93 CALM      30.17R
JAMESTOWN      CLOUDY    54  48  82 N8        30.15R
WELLSVILLE     CLOUDY    51  45  79 NE5       30.18R
ROCHESTER      CLOUDY    57  51  80 NE5       30.18R
PENN YAN       CLEAR     50  45  83 CALM      30.17R
$$

             KEY
       WCI = WIND CHILL INDEX
       VSB = VISIBILITY
       HX  = HEAT INDEX
$$



USA.gov is the U.S. government's official web portal to all federal, state and local government web resources and services.